START_TIME,STEP,MOV.,P11,t_acc.,P23,t_acc.,P27,t_acc.,A4,t_acc.
1979-07-20 09:00:07.290 ,0,0,,0,,0,,0,,0
1979-07-20 09:00:12.090 ,0,0,,0,,0,,0,,0
1979-07-20 09:00:16.890 ,0,0,1.,4.8,0.,4.8,0.,4.8,0.,4.8
1979-07-20 09:00:21.690 ,0,0,1.,4.8,0.,4.8,0.,4.8,0.,4.8
1979-07-20 09:00:26.490 ,0,0,,0,,0,,0,,0
1979-07-20 09:00:22.890 ,0,0,3.,4.8,0.,4.8,0.,4.8,0.,4.8
1979-07-20 09:00:27.690 ,0,0,,0,,0,,0,,0
1979-07-20 09:00:32.490 ,0,0,2.,4.8,0.,4.8,1.,4.8,0.,4.8
1979-07-20 09:00:37.290 ,0,0,2.,4.8,0.,4.8,0.,4.8,0.,4.8
1979-07-20 09:00:42.090 ,0,0,,0,,0,,0,,0
1979-07-20 09:00:51.680 ,0,0,,0,,0,,0,,0
1979-07-20 09:00:56.490 ,0,0,1.,4.8,0.,4.8,0.,4.8,0.,4.8
1979-07-20 09:01:01.290 ,0,0,,0,,0,,0,,0
1979-07-20 09:01:06.090 ,0,0,3.,4.8,0.,4.8,0.,4.8,0.,4.8
1979-07-20 09:01:10.890 ,0,0,4.,4.8,1.,4.8,0.,4.8,0.,4.8
1979-07-20 09:01:10.890 ,0,0,1.,4.8,0.,4.8,0.,4.8,0.,4.8
1979-07-20 09:01:15.690 ,0,0,1.,4.8,0.,4.8,0.,4.8,0.,4.8
1979-07-20 09:01:20.490 ,0,0,4.,4.8,0.,4.8,0.,4.8,0.,4.8
1979-07-20 09:01:25.290 ,0,0,,0,,0,,0,,0
1979-07-20 09:01:30.090 ,0,0,,0,,0,,0,,0
1979-07-20 09:01:34.890 ,0,0,,0,,0,,0,,0
1979-07-20 09:01:39.690 ,0,0,,0,,0,,0,,0
1979-07-20 09:01:44.490 ,0,0,1.,4.8,0.,4.8,0.,4.8,0.,4.8
1979-07-20 09:01:49.290 ,0,0,2.,4.8,0.,4.8,0.,4.8,0.,4.8
1979-07-20 09:01:54.090 ,0,0,,0,,0,,0,,0
1979-07-20 09:01:58.890 ,0,0,1.,4.8,0.,4.8,0.,4.8,0.,4.8
1979-07-20 09:02:03.690 ,0,0,,0,,0,,0,,0
1979-07-20 09:02:08.490 ,0,0,3.,4.8,0.,4.8,0.,4.8,0.,4.8
1979-07-20 09:02:13.290 ,0,0,3.,4.8,0.,4.8,1.,4.8,0.,4.8
1979-07-20 09:02:18.090 ,0,0,,0,,0,,0,,0
1979-07-20 09:02:22.890 ,0,0,3.,4.8,0.,4.8,0.,4.8,0.,4.8
1979-07-20 09:02:27.690 ,0,0,3.,4.8,0.,4.8,0.,4.8,0.,4.8
1979-07-20 09:02:32.490 ,0,0,2.,4.8,0.,4.8,0.,4.8,0.,4.8
1979-07-20 09:02:37.290 ,0,0,1.,4.8,0.,4.8,0.,4.8,0.,4.8
1979-07-20 09:02:42.090 ,0,0,2.,4.8,0.,4.8,0.,4.8,0.,4.8
1979-07-20 09:02:46.880 ,0,0,,0,,0,,0,,0
1979-07-20 09:02:51.680 ,0,0,,0,,0,,0,,0
1979-07-20 09:02:56.490 ,0,0,,0,,0,,0,,0
1979-07-20 09:03:01.290 ,0,0,,0,,0,,0,,0
1979-07-20 09:03:06.090 ,0,0,,0,,0,,0,,0
1979-07-20 09:06:33.080 ,7,0,,0,,0,,0,,0
1979-07-20 09:06:37.880 ,7,0,,0,,0,,0,,0
1979-07-20 09:06:42.680 ,7,0,1.,4.8,0.,4.8,1.,4.8,0.,4.8
1979-07-20 09:06:47.480 ,7,0,1.,4.8,0.,4.8,0.,4.8,0.,4.8
1979-07-20 09:06:52.280 ,7,0,2.,4.8,0.,4.8,0.,4.8,0.,4.8
1979-07-20 09:06:46.880 ,7,0,1.,4.8,0.,4.8,0.,4.8,0.,4.8
1979-07-20 09:06:51.680 ,7,0,1.,4.8,0.,4.8,1.,4.8,0.,4.8
1979-07-20 09:06:56.480 ,7,0,2.,4.8,0.,4.8,0.,4.8,0.,4.8
1979-07-20 09:07:01.280 ,7,0,1.,4.8,0.,4.8,0.,4.8,0.,4.8
1979-07-20 09:07:06.080 ,7,0,3.,4.8,0.,4.8,0.,4.8,0.,4.8
1979-07-20 09:07:10.880 ,3,1,0.,4.8,0.,4.8,1.,4.8,0.,4.8
1979-07-20 09:07:15.680 ,3,1,2.,4.8,0.,4.8,0.,4.8,0.,4.8
1979-07-20 09:07:20.480 ,3,1,4.,4.8,0.,4.8,0.,4.8,0.,4.8
1979-07-20 09:07:25.280 ,3,1,4.,4.8,0.,4.8,0.,4.8,0.,4.8
1979-07-20 09:07:30.080 ,3,1,1.,4.8,0.,4.8,0.,4.8,0.,4.8
1979-07-20 09:07:34.880 ,0,0,2.,4.8,0.,4.8,0.,4.8,0.,4.8
1979-07-20 09:07:39.680 ,0,0,1.,4.8,0.,4.8,0.,4.8,0.,4.8
1979-07-20 09:07:44.480 ,0,0,,0,,0,,0,,0
1979-07-20 09:07:49.280 ,0,0,,0,,0,,0,,0
1979-07-20 09:07:54.080 ,0,0,,0,,0,,0,,0
1979-07-20 09:08:57.080 ,0,0,,0,,0,,0,,0
1979-07-20 09:09:01.880 ,0,0,,0,,0,,0,,0
1979-07-20 09:09:06.680 ,0,0,1.,4.8,0.,4.8,0.,4.8,0.,4.8
1979-07-20 09:09:11.480 ,0,0,2.,4.8,0.,4.8,0.,4.8,0.,4.8
1979-07-20 09:09:16.280 ,0,0,1.,4.8,0.,4.8,0.,4.8,0.,4.8
1979-07-20 09:09:10.880 ,0,1,1.,4.8,0.,4.8,0.,4.8,0.,4.8
1979-07-20 09:09:15.680 ,0,1,1.,4.8,0.,4.8,0.,4.8,0.,4.8
1979-07-20 09:09:20.480 ,0,1,0.,4.8,0.,4.8,0.,4.8,0.,4.8
1979-07-20 09:09:25.280 ,0,1,2.,4.8,0.,4.8,0.,4.8,0.,4.8
1979-07-20 09:09:30.080 ,0,1,2.,4.8,0.,4.8,0.,4.8,1.,4.8
1979-07-20 09:09:34.880 ,4,1,3.,4.8,0.,4.8,0.,4.8,0.,4.8
1979-07-20 09:09:39.680 ,4,1,2.,4.8,0.,4.8,0.,4.8,0.,4.8
1979-07-20 09:09:44.480 ,4,1,2.,4.8,0.,4.8,0.,4.8,0.,4.8
1979-07-20 09:09:49.280 ,4,1,0.,4.8,0.,4.8,0.,4.8,0.,4.8
1979-07-20 09:09:54.080 ,4,1,2.,4.8,0.,4.8,0.,4.8,0.,4.8
1979-07-20 09:09:58.880 ,7,1,1.,4.8,0.,4.8,0.,4.8,0.,4.8
1979-07-20 09:10:03.680 ,7,1,2.,4.8,0.,4.8,0.,4.8,0.,4.8
1979-07-20 09:10:08.480 ,7,1,0.,4.8,0.,4.8,0.,4.8,0.,4.8
1979-07-20 09:10:13.280 ,7,1,4.,4.8,0.,4.8,0.,4.8,0.,4.8
1979-07-20 09:10:18.080 ,7,1,1.,4.8,0.,4.8,0.,4.8,0.,4.8
1979-07-20 09:10:22.880 ,3,1,2.,4.8,0.,4.8,1.,4.8,0.,4.8
1979-07-20 09:10:27.680 ,3,1,2.,4.8,0.,4.8,0.,4.8,0.,4.8
1979-07-20 09:10:32.480 ,3,1,1.,4.8,0.,4.8,0.,4.8,0.,4.8
1979-07-20 09:10:37.280 ,3,1,1.,4.8,0.,4.8,0.,4.8,0.,4.8
1979-07-20 09:10:42.080 ,3,1,3.,4.8,0.,4.8,0.,4.8,0.,4.8
1979-07-20 09:10:46.880 ,0,1,2.,4.8,0.,4.8,0.,4.8,0.,4.8
1979-07-20 09:10:51.680 ,0,1,5.,4.8,0.,4.8,0.,4.8,0.,4.8
1979-07-20 09:10:56.480 ,0,1,0.,4.8,0.,4.8,0.,4.8,0.,4.8
1979-07-20 09:11:01.280 ,0,1,2.,4.8,0.,4.8,0.,4.8,0.,4.8
1979-07-20 09:11:06.080 ,0,1,1.,4.8,0.,4.8,0.,4.8,0.,4.8
1979-07-20 09:11:10.880 ,4,1,1.,4.8,0.,4.8,0.,4.8,0.,4.8
1979-07-20 09:11:15.680 ,4,1,2.,4.8,0.,4.8,0.,4.8,0.,4.8
1979-07-20 09:11:20.480 ,4,1,5.,4.8,0.,4.8,0.,4.8,0.,4.8
1979-07-20 09:11:25.280 ,4,1,4.,4.8,0.,4.8,0.,4.8,0.,4.8
1979-07-20 09:11:30.080 ,4,1,5.,4.8,0.,4.8,0.,4.8,0.,4.8
1979-07-20 09:11:34.880 ,7,1,4.,4.8,0.,4.8,0.,4.8,0.,4.8
1979-07-20 09:11:39.680 ,7,1,0.,4.8,0.,4.8,0.,4.8,0.,4.8
1979-07-20 09:11:44.480 ,7,1,0.,4.8,0.,4.8,0.,4.8,0.,4.8
1979-07-20 09:11:49.280 ,7,1,0.,4.8,0.,4.8,0.,4.8,0.,4.8
1979-07-20 09:11:54.080 ,7,1,1.,4.8,0.,4.8,0.,4.8,0.,4.8
1979-07-20 09:11:58.880 ,3,1,1.,4.8,0.,4.8,0.,4.8,0.,4.8
1979-07-20 09:12:03.680 ,3,1,1.,4.8,0.,4.8,0.,4.8,0.,4.8
1979-07-20 09:12:08.480 ,3,1,3.,4.8,0.,4.8,0.,4.8,0.,4.8
1979-07-20 09:12:13.280 ,3,1,1.,4.8,0.,4.8,0.,4.8,0.,4.8
1979-07-20 09:12:18.080 ,3,1,2.,4.8,0.,4.8,0.,4.8,0.,4.8
1979-07-20 09:12:22.880 ,0,1,2.,4.8,0.,4.8,1.,4.8,0.,4.8
1979-07-20 09:12:27.680 ,0,1,3.,4.8,0.,4.8,2.,4.8,0.,4.8
1979-07-20 09:12:32.480 ,0,1,2.,4.8,1.,4.8,0.,4.8,0.,4.8
1979-07-20 09:12:37.280 ,0,1,2.,4.8,0.,4.8,0.,4.8,1.,4.8
1979-07-20 09:12:42.080 ,0,1,1.,4.8,0.,4.8,0.,4.8,0.,4.8
1979-07-20 09:12:46.880 ,4,1,3.,4.8,0.,4.8,0.,4.8,0.,4.8
1979-07-20 09:12:51.680 ,4,1,5.,4.8,0.,4.8,0.,4.8,0.,4.8
1979-07-20 09:12:56.480 ,4,1,1.,4.8,0.,4.8,0.,4.8,0.,4.8
1979-07-20 09:13:01.280 ,4,1,1.,4.8,0.,4.8,0.,4.8,0.,4.8
1979-07-20 09:13:06.080 ,4,1,4.,4.8,0.,4.8,0.,4.8,0.,4.8
1979-07-20 09:13:10.880 ,7,1,1.,4.8,0.,4.8,0.,4.8,0.,4.8
1979-07-20 09:13:15.680 ,7,1,4.,4.8,0.,4.8,0.,4.8,0.,4.8
1979-07-20 09:13:20.480 ,7,1,2.,4.8,0.,4.8,0.,4.8,0.,4.8
1979-07-20 09:13:25.280 ,7,1,1.,4.8,0.,4.8,0.,4.8,0.,4.8
1979-07-20 09:13:30.080 ,7,1,1.,4.8,1.,4.8,0.,4.8,0.,4.8
1979-07-20 09:13:34.880 ,3,1,0.,4.8,1.,4.8,0.,4.8,0.,4.8
1979-07-20 09:13:39.680 ,3,1,3.,4.8,0.,4.8,1.,4.8,0.,4.8
1979-07-20 09:13:44.480 ,3,1,2.,4.8,0.,4.8,0.,4.8,0.,4.8
1979-07-20 09:13:49.280 ,3,1,3.,4.8,0.,4.8,0.,4.8,0.,4.8
1979-07-20 09:13:54.080 ,3,1,3.,4.8,0.,4.8,0.,4.8,0.,4.8
1979-07-20 09:13:58.880 ,0,1,0.,4.8,0.,4.8,0.,4.8,0.,4.8
1979-07-20 09:14:03.680 ,0,1,1.,4.8,0.,4.8,0.,4.8,0.,4.8
1979-07-20 09:14:08.480 ,0,1,2.,4.8,0.,4.8,0.,4.8,0.,4.8
1979-07-20 09:14:13.280 ,0,1,6.,4.8,0.,4.8,0.,4.8,0.,4.8
1979-07-20 09:14:18.080 ,0,1,3.,4.8,0.,4.8,0.,4.8,1.,4.8
1979-07-20 09:14:22.880 ,4,1,3.,4.8,0.,4.8,0.,4.8,0.,4.8
1979-07-20 09:14:27.680 ,4,1,2.,4.8,0.,4.8,0.,4.8,0.,4.8
1979-07-20 09:14:32.480 ,4,1,2.,4.8,0.,4.8,0.,4.8,0.,4.8
1979-07-20 09:14:37.280 ,4,1,2.,4.8,0.,4.8,0.,4.8,0.,4.8
1979-07-20 09:14:42.080 ,4,1,2.,4.8,0.,4.8,0.,4.8,0.,4.8
1979-07-20 09:14:46.880 ,7,1,0.,4.8,0.,4.8,0.,4.8,0.,4.8
1979-07-20 09:14:51.680 ,7,1,2.,4.8,0.,4.8,0.,4.8,0.,4.8
1979-07-20 09:14:56.480 ,7,1,0.,4.8,0.,4.8,0.,4.8,0.,4.8
1979-07-20 09:15:01.280 ,7,1,1.,4.8,0.,4.8,0.,4.8,0.,4.8
1979-07-20 09:15:06.080 ,7,1,2.,4.8,0.,4.8,1.,4.8,0.,4.8
1979-07-20 09:15:10.880 ,3,1,0.,4.8,0.,4.8,0.,4.8,0.,4.8
1979-07-20 09:15:15.680 ,3,1,3.,4.8,0.,4.8,0.,4.8,0.,4.8
1979-07-20 09:15:20.480 ,3,1,2.,4.8,0.,4.8,1.,4.8,0.,4.8
1979-07-20 09:15:25.280 ,3,1,2.,4.8,0.,4.8,0.,4.8,0.,4.8
1979-07-20 09:15:30.080 ,3,1,1.,4.8,0.,4.8,0.,4.8,0.,4.8
1979-07-20 09:15:34.880 ,0,1,0.,4.8,0.,4.8,0.,4.8,0.,4.8
1979-07-20 09:15:39.680 ,0,1,3.,4.8,0.,4.8,0.,4.8,0.,4.8
1979-07-20 09:15:44.480 ,0,1,2.,4.8,0.,4.8,0.,4.8,0.,4.8
1979-07-20 09:15:49.280 ,0,1,3.,4.8,0.,4.8,1.,4.8,0.,4.8
1979-07-20 09:15:54.080 ,0,1,1.,4.8,0.,4.8,0.,4.8,0.,4.8
1979-07-20 09:15:58.880 ,4,1,4.,4.8,0.,4.8,1.,4.8,0.,4.8
1979-07-20 09:16:03.680 ,4,1,4.,4.8,0.,4.8,0.,4.8,0.,4.8
1979-07-20 09:16:08.480 ,4,1,2.,4.8,0.,4.8,0.,4.8,0.,4.8
1979-07-20 09:16:13.280 ,4,1,1.,4.8,1.,4.8,0.,4.8,0.,4.8
1979-07-20 09:16:18.080 ,4,1,0.,4.8,0.,4.8,0.,4.8,0.,4.8
1979-07-20 09:16:22.880 ,7,1,0.,4.8,0.,4.8,0.,4.8,0.,4.8
1979-07-20 09:16:27.680 ,7,1,3.,4.8,0.,4.8,0.,4.8,0.,4.8
1979-07-20 09:16:32.480 ,7,1,1.,4.8,0.,4.8,0.,4.8,0.,4.8
1979-07-20 09:16:37.280 ,7,1,1.,4.8,0.,4.8,0.,4.8,0.,4.8
1979-07-20 09:16:42.080 ,7,1,0.,4.8,0.,4.8,1.,4.8,0.,4.8
1979-07-20 09:16:46.880 ,3,1,5.,4.8,0.,4.8,1.,4.8,0.,4.8
1979-07-20 09:16:51.680 ,3,1,3.,4.8,0.,4.8,1.,4.8,0.,4.8
1979-07-20 09:16:56.480 ,3,1,2.,4.8,0.,4.8,0.,4.8,0.,4.8
1979-07-20 09:17:01.280 ,3,1,1.,4.8,0.,4.8,0.,4.8,0.,4.8
1979-07-20 09:17:06.080 ,3,1,0.,4.8,0.,4.8,0.,4.8,0.,4.8
1979-07-20 09:17:10.880 ,0,1,0.,4.8,0.,4.8,1.,4.8,0.,4.8
1979-07-20 09:17:15.680 ,0,1,2.,4.8,0.,4.8,0.,4.8,0.,4.8
1979-07-20 09:17:20.480 ,0,1,2.,4.8,0.,4.8,1.,4.8,0.,4.8
1979-07-20 09:17:25.280 ,0,1,1.,4.8,0.,4.8,0.,4.8,0.,4.8
1979-07-20 09:17:30.080 ,0,1,2.,4.8,0.,4.8,1.,4.8,0.,4.8
1979-07-20 09:17:34.880 ,0,0,4.,4.8,0.,4.8,1.,4.8,0.,4.8
1979-07-20 09:17:39.680 ,0,0,2.,4.8,0.,4.8,0.,4.8,0.,4.8
1979-07-20 09:17:44.480 ,0,0,3.,4.8,0.,4.8,0.,4.8,0.,4.8
1979-07-20 09:17:49.280 ,0,0,2.,4.8,0.,4.8,0.,4.8,0.,4.8
1979-07-20 09:17:54.080 ,0,0,2.,4.8,0.,4.8,0.,4.8,0.,4.8
1979-07-20 09:17:58.880 ,0,0,1.,4.8,0.,4.8,0.,4.8,0.,4.8
1979-07-20 09:18:03.680 ,0,0,0.,4.8,0.,4.8,0.,4.8,0.,4.8
1979-07-20 09:18:08.480 ,0,0,1.,4.8,0.,4.8,0.,4.8,0.,4.8
1979-07-20 09:18:13.280 ,0,0,1.,4.8,0.,4.8,0.,4.8,0.,4.8
1979-07-20 09:18:18.080 ,0,0,1.,4.8,0.,4.8,0.,4.8,0.,4.8
1979-07-20 09:18:22.880 ,5,0,0.,4.8,1.,4.8,0.,4.8,0.,4.8
1979-07-20 09:18:27.680 ,5,0,1.,4.8,0.,4.8,0.,4.8,0.,4.8
1979-07-20 09:18:32.480 ,5,0,4.,4.8,0.,4.8,0.,4.8,0.,4.8
1979-07-20 09:18:37.280 ,5,0,3.,4.8,0.,4.8,0.,4.8,0.,4.8
1979-07-20 09:18:42.080 ,5,0,1.,4.8,0.,4.8,1.,4.8,0.,4.8
1979-07-20 09:18:46.880 ,5,0,2.,4.8,0.,4.8,0.,4.8,0.,4.8
1979-07-20 09:18:51.680 ,5,0,2.,4.8,0.,4.8,0.,4.8,0.,4.8
1979-07-20 09:18:56.480 ,5,0,1.,4.8,0.,4.8,0.,4.8,0.,4.8
1979-07-20 09:19:01.280 ,5,0,1.,4.8,0.,4.8,0.,4.8,0.,4.8
1979-07-20 09:19:06.080 ,5,0,0.,4.8,0.,4.8,0.,4.8,0.,4.8
1979-07-20 09:19:10.880 ,4,0,0.,4.8,0.,4.8,0.,4.8,0.,4.8
1979-07-20 09:19:15.680 ,4,0,1.,4.8,0.,4.8,0.,4.8,0.,4.8
1979-07-20 09:19:20.480 ,4,0,1.,4.8,0.,4.8,0.,4.8,0.,4.8
1979-07-20 09:19:25.280 ,4,0,2.,4.8,0.,4.8,0.,4.8,0.,4.8
1979-07-20 09:19:30.080 ,4,0,1.,4.8,0.,4.8,0.,4.8,0.,4.8
1979-07-20 09:19:34.880 ,4,0,1.,4.8,0.,4.8,0.,4.8,1.,4.8
1979-07-20 09:19:39.680 ,4,0,3.,4.8,0.,4.8,0.,4.8,0.,4.8
1979-07-20 09:19:44.480 ,4,0,1.,4.8,0.,4.8,0.,4.8,0.,4.8
1979-07-20 09:19:49.280 ,4,0,1.,4.8,0.,4.8,0.,4.8,0.,4.8
1979-07-20 09:19:54.080 ,4,0,0.,4.8,0.,4.8,0.,4.8,0.,4.8
1979-07-20 09:19:58.880 ,3,0,2.,4.8,0.,4.8,0.,4.8,0.,4.8
1979-07-20 09:20:03.680 ,3,0,1.,4.8,0.,4.8,0.,4.8,0.,4.8
1979-07-20 09:20:08.480 ,3,0,3.,4.8,0.,4.8,0.,4.8,0.,4.8
1979-07-20 09:20:13.280 ,3,0,3.,4.8,0.,4.8,1.,4.8,0.,4.8
1979-07-20 09:20:18.080 ,3,0,0.,4.8,1.,4.8,0.,4.8,0.,4.8
1979-07-20 09:20:22.880 ,3,0,3.,4.8,0.,4.8,0.,4.8,1.,4.8
1979-07-20 09:20:27.680 ,3,0,3.,4.8,0.,4.8,2.,4.8,0.,4.8
1979-07-20 09:20:32.480 ,3,0,0.,4.8,0.,4.8,0.,4.8,0.,4.8
1979-07-20 09:20:37.280 ,3,0,1.,4.8,0.,4.8,0.,4.8,0.,4.8
1979-07-20 09:20:42.080 ,3,0,2.,4.8,0.,4.8,0.,4.8,0.,4.8
1979-07-20 09:20:46.880 ,2,0,2.,4.8,0.,4.8,0.,4.8,0.,4.8
1979-07-20 09:20:51.680 ,2,0,2.,4.8,0.,4.8,0.,4.8,0.,4.8
1979-07-20 09:20:56.480 ,2,0,4.,4.8,0.,4.8,0.,4.8,0.,4.8
1979-07-20 09:21:01.280 ,2,0,1.,4.8,0.,4.8,0.,4.8,0.,4.8
1979-07-20 09:21:06.080 ,2,0,3.,4.8,0.,4.8,0.,4.8,0.,4.8
1979-07-20 09:21:10.880 ,2,0,2.,4.8,0.,4.8,0.,4.8,0.,4.8
1979-07-20 09:21:15.680 ,2,0,4.,4.8,0.,4.8,0.,4.8,0.,4.8
1979-07-20 09:21:20.480 ,2,0,3.,4.8,0.,4.8,0.,4.8,0.,4.8
1979-07-20 09:21:25.280 ,2,0,5.,4.8,0.,4.8,0.,4.8,0.,4.8
1979-07-20 09:21:30.080 ,2,0,1.,4.8,0.,4.8,0.,4.8,0.,4.8
1979-07-20 09:21:34.880 ,1,0,0.,4.8,0.,4.8,0.,4.8,0.,4.8
1979-07-20 09:21:39.680 ,1,0,1.,4.8,0.,4.8,0.,4.8,0.,4.8
1979-07-20 09:21:44.480 ,1,0,2.,4.8,0.,4.8,0.,4.8,1.,4.8
1979-07-20 09:21:49.280 ,1,0,0.,4.8,0.,4.8,0.,4.8,0.,4.8
1979-07-20 09:21:54.080 ,1,0,3.,4.8,0.,4.8,0.,4.8,0.,4.8
1979-07-20 09:21:58.880 ,1,0,2.,4.8,0.,4.8,0.,4.8,0.,4.8
1979-07-20 09:22:03.680 ,1,0,5.,4.8,0.,4.8,0.,4.8,0.,4.8
1979-07-20 09:22:08.480 ,1,0,3.,4.8,0.,4.8,0.,4.8,0.,4.8
1979-07-20 09:22:13.280 ,1,0,2.,4.8,0.,4.8,1.,4.8,0.,4.8
1979-07-20 09:22:18.080 ,1,0,1.,4.8,0.,4.8,0.,4.8,0.,4.8
1979-07-20 09:22:22.880 ,0,0,1.,4.8,0.,4.8,2.,4.8,0.,4.8
1979-07-20 09:22:27.680 ,0,0,2.,4.8,0.,4.8,0.,4.8,0.,4.8
1979-07-20 09:22:32.480 ,0,0,1.,4.8,0.,4.8,0.,4.8,0.,4.8
1979-07-20 09:22:37.280 ,0,0,5.,4.8,0.,4.8,0.,4.8,0.,4.8
1979-07-20 09:22:42.080 ,0,0,1.,4.8,0.,4.8,0.,4.8,0.,4.8
1979-07-20 09:22:46.880 ,0,0,2.,4.8,0.,4.8,0.,4.8,0.,4.8
1979-07-20 09:22:51.680 ,0,0,2.,4.8,0.,4.8,0.,4.8,0.,4.8
1979-07-20 09:22:56.480 ,0,0,3.,4.8,0.,4.8,0.,4.8,0.,4.8
1979-07-20 09:23:01.280 ,0,0,1.,4.8,0.,4.8,0.,4.8,0.,4.8
1979-07-20 09:23:06.080 ,0,0,3.,4.8,0.,4.8,0.,4.8,0.,4.8
1979-07-20 09:23:10.880 ,0,0,0.,4.8,0.,4.8,0.,4.8,0.,4.8
1979-07-20 09:23:15.680 ,0,0,0.,4.8,1.,4.8,0.,4.8,0.,4.8
1979-07-20 09:23:20.480 ,0,0,3.,4.8,0.,4.8,0.,4.8,0.,4.8
1979-07-20 09:23:25.280 ,0,0,1.,4.8,0.,4.8,0.,4.8,0.,4.8
1979-07-20 09:23:30.080 ,0,0,4.,4.8,0.,4.8,1.,4.8,0.,4.8
1979-07-20 09:23:34.880 ,0,0,4.,4.8,0.,4.8,1.,4.8,0.,4.8
1979-07-20 09:23:39.680 ,0,0,3.,4.8,0.,4.8,0.,4.8,0.,4.8
1979-07-20 09:23:44.480 ,0,0,4.,4.8,0.,4.8,0.,4.8,0.,4.8
1979-07-20 09:23:49.280 ,0,0,2.,4.8,0.,4.8,0.,4.8,0.,4.8
1979-07-20 09:23:54.080 ,0,0,3.,4.8,1.,4.8,0.,4.8,0.,4.8
1979-07-20 09:23:58.880 ,1,0,4.,4.8,0.,4.8,0.,4.8,0.,4.8
1979-07-20 09:24:03.680 ,1,0,1.,4.8,0.,4.8,0.,4.8,0.,4.8
1979-07-20 09:24:08.480 ,1,0,2.,4.8,0.,4.8,0.,4.8,0.,4.8
1979-07-20 09:24:13.280 ,1,0,6.,4.8,1.,4.8,0.,4.8,0.,4.8
1979-07-20 09:24:18.080 ,1,0,3.,4.8,0.,4.8,0.,4.8,0.,4.8
1979-07-20 09:24:22.880 ,1,0,1.,4.8,0.,4.8,0.,4.8,0.,4.8
1979-07-20 09:24:27.680 ,1,0,0.,4.8,0.,4.8,0.,4.8,0.,4.8
1979-07-20 09:24:32.480 ,1,0,2.,4.8,0.,4.8,0.,4.8,0.,4.8
1979-07-20 09:24:37.280 ,1,0,2.,4.8,0.,4.8,0.,4.8,0.,4.8
1979-07-20 09:24:42.080 ,1,0,3.,4.8,1.,4.8,0.,4.8,0.,4.8
1979-07-20 09:24:46.880 ,2,0,4.,4.8,0.,4.8,0.,4.8,1.,4.8
1979-07-20 09:24:51.680 ,2,0,2.,4.8,0.,4.8,0.,4.8,0.,4.8
1979-07-20 09:24:56.480 ,2,0,5.,4.8,0.,4.8,0.,4.8,0.,4.8
1979-07-20 09:25:01.280 ,2,0,1.,4.8,0.,4.8,0.,4.8,0.,4.8
1979-07-20 09:25:06.080 ,2,0,1.,4.8,0.,4.8,0.,4.8,0.,4.8
1979-07-20 09:25:10.880 ,2,0,3.,4.8,0.,4.8,0.,4.8,0.,4.8
1979-07-20 09:25:15.680 ,2,0,0.,4.8,0.,4.8,0.,4.8,0.,4.8
1979-07-20 09:25:20.480 ,2,0,5.,4.8,0.,4.8,0.,4.8,0.,4.8
1979-07-20 09:25:25.280 ,2,0,1.,4.8,0.,4.8,0.,4.8,0.,4.8
1979-07-20 09:25:30.080 ,2,0,5.,4.8,0.,4.8,0.,4.8,0.,4.8
1979-07-20 09:25:34.880 ,3,0,1.,4.8,0.,4.8,0.,4.8,0.,4.8
1979-07-20 09:25:39.680 ,3,0,2.,4.8,0.,4.8,1.,4.8,0.,4.8
1979-07-20 09:25:44.480 ,3,0,1.,4.8,0.,4.8,0.,4.8,1.,4.8
1979-07-20 09:25:49.280 ,3,0,2.,4.8,0.,4.8,0.,4.8,0.,4.8
1979-07-20 09:25:54.080 ,3,0,5.,4.8,0.,4.8,0.,4.8,0.,4.8
1979-07-20 09:25:58.880 ,3,0,2.,4.8,0.,4.8,0.,4.8,0.,4.8
1979-07-20 09:26:03.680 ,3,0,3.,4.8,0.,4.8,0.,4.8,0.,4.8
1979-07-20 09:26:08.480 ,3,0,0.,4.8,0.,4.8,0.,4.8,0.,4.8
1979-07-20 09:26:13.280 ,3,0,0.,4.8,0.,4.8,0.,4.8,0.,4.8
1979-07-20 09:26:18.080 ,3,0,3.,4.8,0.,4.8,0.,4.8,0.,4.8
1979-07-20 09:26:22.880 ,4,0,1.,4.8,0.,4.8,0.,4.8,0.,4.8
1979-07-20 09:26:27.680 ,4,0,0.,4.8,0.,4.8,0.,4.8,0.,4.8
1979-07-20 09:26:32.480 ,4,0,1.,4.8,0.,4.8,0.,4.8,0.,4.8
1979-07-20 09:26:37.280 ,4,0,2.,4.8,0.,4.8,0.,4.8,0.,4.8
1979-07-20 09:26:42.080 ,4,0,2.,4.8,0.,4.8,0.,4.8,0.,4.8
1979-07-20 09:26:46.880 ,4,0,1.,4.8,0.,4.8,0.,4.8,0.,4.8
1979-07-20 09:26:51.680 ,4,0,4.,4.8,0.,4.8,0.,4.8,0.,4.8
1979-07-20 09:26:56.480 ,4,0,0.,4.8,0.,4.8,0.,4.8,0.,4.8
1979-07-20 09:27:01.280 ,4,0,3.,4.8,0.,4.8,0.,4.8,0.,4.8
1979-07-20 09:27:06.080 ,4,0,3.,4.8,0.,4.8,0.,4.8,0.,4.8
1979-07-20 09:27:10.880 ,5,0,2.,4.8,0.,4.8,0.,4.8,0.,4.8
1979-07-20 09:27:15.680 ,5,0,2.,4.8,0.,4.8,0.,4.8,0.,4.8
1979-07-20 09:27:20.480 ,5,0,1.,4.8,0.,4.8,0.,4.8,0.,4.8
1979-07-20 09:27:25.280 ,5,0,2.,4.8,0.,4.8,0.,4.8,0.,4.8
1979-07-20 09:27:30.080 ,5,0,1.,4.8,0.,4.8,0.,4.8,0.,4.8
1979-07-20 09:27:34.880 ,5,0,3.,4.8,0.,4.8,0.,4.8,0.,4.8
1979-07-20 09:27:39.680 ,5,0,1.,4.8,0.,4.8,1.,4.8,0.,4.8
1979-07-20 09:27:44.480 ,5,0,1.,4.8,0.,4.8,0.,4.8,0.,4.8
1979-07-20 09:27:49.280 ,5,0,0.,4.8,0.,4.8,0.,4.8,0.,4.8
1979-07-20 09:27:54.080 ,5,0,1.,4.8,0.,4.8,0.,4.8,0.,4.8
1979-07-20 09:27:58.880 ,6,0,1.,4.8,0.,4.8,0.,4.8,0.,4.8
1979-07-20 09:28:03.680 ,6,0,3.,4.8,0.,4.8,0.,4.8,0.,4.8
1979-07-20 09:28:08.480 ,6,0,1.,4.8,0.,4.8,0.,4.8,0.,4.8
1979-07-20 09:28:13.280 ,6,0,2.,4.8,0.,4.8,0.,4.8,0.,4.8
1979-07-20 09:28:18.080 ,6,0,0.,4.8,0.,4.8,0.,4.8,0.,4.8
1979-07-20 09:28:22.880 ,6,0,1.,4.8,1.,4.8,0.,4.8,0.,4.8
1979-07-20 09:28:27.680 ,6,0,0.,4.8,0.,4.8,0.,4.8,0.,4.8
1979-07-20 09:28:32.480 ,6,0,2.,4.8,0.,4.8,2.,4.8,0.,4.8
1979-07-20 09:28:37.280 ,6,0,1.,4.8,0.,4.8,0.,4.8,0.,4.8
1979-07-20 09:28:42.080 ,6,0,3.,4.8,0.,4.8,0.,4.8,0.,4.8
1979-07-20 09:28:46.880 ,7,0,1.,4.8,0.,4.8,0.,4.8,0.,4.8
1979-07-20 09:28:51.680 ,7,0,3.,4.8,0.,4.8,0.,4.8,0.,4.8
1979-07-20 09:28:56.480 ,7,0,1.,4.8,0.,4.8,0.,4.8,0.,4.8
1979-07-20 09:29:01.280 ,7,0,2.,4.8,0.,4.8,0.,4.8,0.,4.8
1979-07-20 09:29:06.080 ,7,0,0.,4.8,0.,4.8,2.,4.8,0.,4.8
1979-07-20 09:29:10.880 ,7,0,1.,4.8,0.,4.8,0.,4.8,0.,4.8
1979-07-20 09:29:15.680 ,7,0,0.,4.8,0.,4.8,1.,4.8,0.,4.8
1979-07-20 09:29:20.480 ,7,0,2.,4.8,0.,4.8,0.,4.8,0.,4.8
1979-07-20 09:29:25.280 ,7,0,1.,4.8,0.,4.8,1.,4.8,0.,4.8
1979-07-20 09:29:30.080 ,7,0,0.,4.8,0.,4.8,1.,4.8,0.,4.8
1979-07-20 09:29:34.880 ,7,0,0.,4.8,0.,4.8,0.,4.8,0.,4.8
1979-07-20 09:29:39.680 ,7,0,2.,4.8,0.,4.8,0.,4.8,0.,4.8
1979-07-20 09:29:44.480 ,7,0,1.,4.8,0.,4.8,1.,4.8,0.,4.8
1979-07-20 09:29:49.280 ,7,0,2.,4.8,0.,4.8,0.,4.8,0.,4.8
1979-07-20 09:29:54.080 ,7,0,1.,4.8,0.,4.8,1.,4.8,0.,4.8
1979-07-20 09:29:58.880 ,7,0,0.,4.8,0.,4.8,0.,4.8,0.,4.8
1979-07-20 09:30:03.680 ,7,0,0.,4.8,0.,4.8,0.,4.8,0.,4.8
1979-07-20 09:30:08.480 ,7,0,1.,4.8,0.,4.8,0.,4.8,0.,4.8
1979-07-20 09:30:13.280 ,7,0,1.,4.8,0.,4.8,0.,4.8,0.,4.8
1979-07-20 09:30:18.080 ,7,0,0.,4.8,0.,4.8,0.,4.8,0.,4.8
1979-07-20 09:30:22.880 ,6,0,0.,4.8,0.,4.8,1.,4.8,0.,4.8
1979-07-20 09:30:27.680 ,6,0,1.,4.8,0.,4.8,0.,4.8,0.,4.8
1979-07-20 09:30:32.480 ,6,0,2.,4.8,0.,4.8,0.,4.8,0.,4.8
1979-07-20 09:30:37.280 ,6,0,3.,4.8,0.,4.8,0.,4.8,0.,4.8
1979-07-20 09:30:42.080 ,6,0,1.,4.8,0.,4.8,0.,4.8,0.,4.8
1979-07-20 09:30:46.880 ,6,0,2.,4.8,0.,4.8,0.,4.8,0.,4.8
1979-07-20 09:30:51.680 ,6,0,3.,4.8,0.,4.8,0.,4.8,0.,4.8
1979-07-20 09:30:56.480 ,6,0,0.,4.8,0.,4.8,0.,4.8,0.,4.8
1979-07-20 09:31:01.280 ,6,0,0.,4.8,0.,4.8,0.,4.8,0.,4.8
1979-07-20 09:31:06.080 ,6,0,1.,4.8,0.,4.8,0.,4.8,0.,4.8
1979-07-20 09:31:10.880 ,5,0,1.,4.8,0.,4.8,0.,4.8,0.,4.8
1979-07-20 09:31:15.680 ,5,0,2.,4.8,0.,4.8,1.,4.8,0.,4.8
1979-07-20 09:31:20.480 ,5,0,1.,4.8,0.,4.8,0.,4.8,0.,4.8
1979-07-20 09:31:25.280 ,5,0,0.,4.8,0.,4.8,0.,4.8,0.,4.8
1979-07-20 09:31:30.080 ,5,0,0.,4.8,0.,4.8,0.,4.8,0.,4.8
1979-07-20 09:31:34.880 ,5,0,1.,4.8,0.,4.8,0.,4.8,0.,4.8
1979-07-20 09:31:39.680 ,5,0,1.,4.8,0.,4.8,0.,4.8,0.,4.8
1979-07-20 09:31:44.480 ,5,0,2.,4.8,0.,4.8,0.,4.8,0.,4.8
1979-07-20 09:31:49.280 ,5,0,2.,4.8,0.,4.8,0.,4.8,0.,4.8
1979-07-20 09:31:54.080 ,5,0,2.,4.8,0.,4.8,0.,4.8,0.,4.8
1979-07-20 09:31:58.880 ,4,0,3.,4.8,0.,4.8,0.,4.8,0.,4.8
1979-07-20 09:32:03.680 ,4,0,1.,4.8,0.,4.8,0.,4.8,0.,4.8
1979-07-20 09:32:08.480 ,4,0,2.,4.8,0.,4.8,0.,4.8,0.,4.8
1979-07-20 09:32:13.280 ,4,0,1.,4.8,0.,4.8,0.,4.8,0.,4.8
1979-07-20 09:32:18.080 ,4,0,0.,4.8,0.,4.8,0.,4.8,0.,4.8
1979-07-20 09:32:22.880 ,4,0,1.,4.8,0.,4.8,0.,4.8,0.,4.8
1979-07-20 09:32:27.680 ,4,0,6.,4.8,0.,4.8,0.,4.8,0.,4.8
1979-07-20 09:32:32.480 ,4,0,0.,4.8,0.,4.8,0.,4.8,0.,4.8
1979-07-20 09:32:37.280 ,4,0,0.,4.8,0.,4.8,0.,4.8,0.,4.8
1979-07-20 09:32:42.080 ,4,0,0.,4.8,0.,4.8,1.,4.8,0.,4.8
1979-07-20 09:32:46.880 ,3,0,1.,4.8,0.,4.8,0.,4.8,0.,4.8
1979-07-20 09:32:51.680 ,3,0,0.,4.8,0.,4.8,0.,4.8,0.,4.8
1979-07-20 09:32:56.480 ,3,0,1.,4.8,0.,4.8,0.,4.8,0.,4.8
1979-07-20 09:33:01.280 ,3,0,1.,4.8,0.,4.8,0.,4.8,0.,4.8
1979-07-20 09:33:06.080 ,3,0,2.,4.8,0.,4.8,1.,4.8,0.,4.8
1979-07-20 09:33:10.880 ,3,0,0.,4.8,0.,4.8,0.,4.8,0.,4.8
1979-07-20 09:33:15.680 ,3,0,0.,4.8,0.,4.8,0.,4.8,0.,4.8
1979-07-20 09:33:20.480 ,3,0,1.,4.8,0.,4.8,0.,4.8,0.,4.8
1979-07-20 09:33:25.280 ,3,0,1.,4.8,0.,4.8,0.,4.8,0.,4.8
1979-07-20 09:33:30.080 ,3,0,2.,4.8,0.,4.8,0.,4.8,1.,4.8
1979-07-20 09:33:34.880 ,2,0,3.,4.8,0.,4.8,0.,4.8,0.,4.8
1979-07-20 09:33:39.680 ,2,0,1.,4.8,0.,4.8,0.,4.8,0.,4.8
1979-07-20 09:33:44.480 ,2,0,2.,4.8,0.,4.8,0.,4.8,0.,4.8
1979-07-20 09:33:49.280 ,2,0,0.,4.8,0.,4.8,1.,4.8,0.,4.8
1979-07-20 09:33:54.080 ,2,0,1.,4.8,0.,4.8,0.,4.8,0.,4.8
1979-07-20 09:33:58.880 ,2,0,2.,4.8,0.,4.8,0.,4.8,0.,4.8
1979-07-20 09:34:03.680 ,2,0,0.,4.8,0.,4.8,0.,4.8,0.,4.8
1979-07-20 09:34:08.480 ,2,0,0.,4.8,0.,4.8,0.,4.8,0.,4.8
1979-07-20 09:34:13.280 ,2,0,2.,4.8,0.,4.8,0.,4.8,0.,4.8
1979-07-20 09:34:18.080 ,2,0,2.,4.8,0.,4.8,1.,4.8,0.,4.8
1979-07-20 09:34:22.880 ,1,0,1.,4.8,0.,4.8,1.,4.8,0.,4.8
1979-07-20 09:34:27.680 ,1,0,2.,4.8,0.,4.8,0.,4.8,0.,4.8
1979-07-20 09:34:32.480 ,1,0,0.,4.8,0.,4.8,1.,4.8,0.,4.8
1979-07-20 09:34:37.280 ,1,0,1.,4.8,0.,4.8,1.,4.8,1.,4.8
1979-07-20 09:34:42.080 ,1,0,1.,4.8,0.,4.8,0.,4.8,0.,4.8
1979-07-20 09:34:46.880 ,1,0,1.,4.8,0.,4.8,0.,4.8,1.,4.8
1979-07-20 09:34:51.680 ,1,0,1.,4.8,1.,4.8,0.,4.8,0.,4.8
1979-07-20 09:34:56.480 ,1,0,1.,4.8,0.,4.8,1.,4.8,0.,4.8
1979-07-20 09:35:01.280 ,1,0,0.,4.8,0.,4.8,0.,4.8,0.,4.8
1979-07-20 09:35:06.080 ,1,0,1.,4.8,0.,4.8,0.,4.8,0.,4.8
1979-07-20 09:35:10.880 ,0,0,0.,4.8,0.,4.8,0.,4.8,0.,4.8
1979-07-20 09:35:15.680 ,0,0,1.,4.8,0.,4.8,0.,4.8,0.,4.8
1979-07-20 09:35:20.480 ,0,0,2.,4.8,0.,4.8,0.,4.8,0.,4.8
1979-07-20 09:35:25.280 ,0,0,1.,4.8,0.,4.8,0.,4.8,0.,4.8
1979-07-20 09:35:30.080 ,0,0,1.,4.8,0.,4.8,0.,4.8,0.,4.8
1979-07-20 09:35:34.880 ,0,0,0.,4.8,0.,4.8,0.,4.8,0.,4.8
1979-07-20 09:35:39.680 ,0,0,0.,4.8,0.,4.8,0.,4.8,0.,4.8
1979-07-20 09:35:44.480 ,0,0,3.,4.8,1.,4.8,0.,4.8,0.,4.8
1979-07-20 09:35:49.280 ,0,0,1.,4.8,0.,4.8,0.,4.8,0.,4.8
1979-07-20 09:35:54.080 ,0,0,1.,4.8,0.,4.8,0.,4.8,0.,4.8
1979-07-20 09:35:58.880 ,0,0,1.,4.8,0.,4.8,0.,4.8,0.,4.8
1979-07-20 09:36:03.680 ,0,0,1.,4.8,0.,4.8,0.,4.8,0.,4.8
1979-07-20 09:36:08.480 ,0,0,0.,4.8,0.,4.8,0.,4.8,0.,4.8
1979-07-20 09:36:13.280 ,0,0,3.,4.8,0.,4.8,1.,4.8,0.,4.8
1979-07-20 09:36:18.080 ,0,0,4.,4.8,0.,4.8,0.,4.8,0.,4.8
1979-07-20 09:36:22.880 ,0,0,1.,4.8,0.,4.8,0.,4.8,0.,4.8
1979-07-20 09:36:27.680 ,0,0,3.,4.8,0.,4.8,0.,4.8,0.,4.8
1979-07-20 09:36:32.480 ,0,0,2.,4.8,0.,4.8,0.,4.8,0.,4.8
1979-07-20 09:36:37.280 ,0,0,1.,4.8,0.,4.8,2.,4.8,0.,4.8
1979-07-20 09:36:42.080 ,0,0,0.,4.8,0.,4.8,0.,4.8,0.,4.8
1979-07-20 09:36:46.880 ,1,0,2.,4.8,0.,4.8,0.,4.8,0.,4.8
1979-07-20 09:36:51.680 ,1,0,1.,4.8,0.,4.8,0.,4.8,0.,4.8
1979-07-20 09:36:56.480 ,1,0,0.,4.8,0.,4.8,0.,4.8,0.,4.8
1979-07-20 09:37:01.280 ,1,0,2.,4.8,0.,4.8,1.,4.8,0.,4.8
1979-07-20 09:37:06.080 ,1,0,1.,4.8,0.,4.8,0.,4.8,0.,4.8
1979-07-20 09:37:10.880 ,1,0,0.,4.8,0.,4.8,0.,4.8,0.,4.8
1979-07-20 09:37:15.680 ,1,0,0.,4.8,0.,4.8,0.,4.8,0.,4.8
1979-07-20 09:37:20.480 ,1,0,1.,4.8,0.,4.8,0.,4.8,0.,4.8
1979-07-20 09:37:25.280 ,1,0,1.,4.8,0.,4.8,0.,4.8,0.,4.8